STARLINK-32159, 60293

Orbit data source: Space-Track

STARLINK-32159, 60293 is a payload satellite owned by SpaceX/Seattle (US) in LEO that was launched on Sun, 28 Jul 2024 UTC via an FALCON 9 launch vehicle from the Air Force Eastern Test Range (AFETR). Payload-class satellites include a variety of spacecraft equipped with specific instruments for various scientific and technological missions. These include communications satellites like Starlink; space stations such as the ISS; scientific satellites like the Hubble; Earth observation satellites from companies like Planet Labs, Umbra, and HawkEye 360; GPS; miniature CubeSats for education and research; and military/defense satellites.

Loading next visibility...
Identifier
60293, 2024-132R
Orbit
LEO
Country
Flag of USUS
Related business
Manufacturer
SpaceX/Seattle
Mission
Operational Commercial Communications
Bus & Motor
STARLINK V2M, Unknown motor
Mass
730 kg wet, ~700 kg dry
Launch date (UTC)
2024-07-28 (1 year ago)
Launch vehicle
FALCON 9
Launch site
Air Force Eastern Test Range (AFETR)
Object type
Payload
Rocket body
Debris
Shape & HBR
Box + 2 Pan, 17.7 m
Radar Cross Section
33.884 m², Large (>1 m²)

Expand to show TLE details & history
Last TLE update: 8 hours ago

TLE from 8 hours ago
0 STARLINK-32159
1 60293U 24132R   25288.94625870  .00001895  00000-0  76092-4 0  9999
2 60293  53.1620   4.4550 0001293  87.1515 272.9634 15.30197358 69403
Epoch: 2025-10-15T22:42Z
TLE epoch observation values (Epoch: 2025-10-15T22:42:36.751Z)
Latitude
-0.00001°
Longitude
-0.91118°
Altitude
476.077 km
Speed
7.629 km/s
True Right ascension
00h 17m 49s
True Declination
0° 00' 00"
Sunlit
Object was in full shadow at epoch
Visualization orbit readout
Latitude
Unknown
Longitude
Unknown
Altitude
Unknown
Speed
Unknown
Apparent Right ascension
Unknown
Apparent Declination
Unknown
Sunlit
N/A
Visualization observer readout
Local Sidereal Time
01:26:42
Azimuth
Unknown
Elevation
Unknown
Doppler factor
Unknown
Orbital elements
Apogee altitude
476.365 km
Perigee altitude
474.593 km
Semi-major axis
6,853.616 km
Eccentricity
0.00013
Inclination
53.162°
RAAN
4.455°
Arg. of periapsis
87.1515°
True anomaly
272.9486°
Mean anomaly
272.9634°
Eccentric anomaly
272.956°
Mean motion
3.82528 °/min
Orbital period
94.11 mins
BSTAR
0.000076092
Loading maneuver chart data...
Computing Atmospheric mass density...
Loading historical data...
Loading historical data...
Loading historical data...
Loading historical data...
Loading historical data...
Loading historical data...
Loading historical data...

Documentation

Showing up to 5 results
|